Regional Weather Roundup
Issued by NWS

Home | Current Version | Previous Version | Graphics & Text | Print | Product List | Glossary On
Versions: 1 2 3 4 5 6 7 8 9 10 11 12 13 14 15 16 17 18 19 20 21 22 23 24 25 26 27 28 29 30 31 32 33 34 35 36 37 38 39 40 41 42 43 44 45 46 47 48
000
ASUS45 KBOU 281107
RWRCO

WEATHER ROUNDUP FOR COLORADO
NATIONAL WEATHER SERVICE DENVER/BOULDER CO
400 AM MST WED JAN 28 2015

NOTE: "FAIR" INDICATES FEW OR NO CLOUDS BELOW 12000 FEET WITH NO
SIGNIFICANT WEATHER AND/OR OBSTRUCTIONS TO VISIBILITY.

COZ001>005-013-030-031-281200-
...NORTHWEST COLORADO...

CITY           SKY/WX    TMP DP  RH WIND       PRES   REMARKS
CRAIG          MOCLDY    35  32  88 CALM      30.22R
HAYDEN         PTCLDY    36  30  80 CALM      30.21S
MEEKER         MOCLDY    38  30  73 W7        30.23R
MOUNT WERNER   NOT AVBL
STEAMBOAT SPGS CLOUDY    32  29  90 CALM      30.21S
WALDEN         MOCLDY    34  30  86 SW15      30.17S WCI  24
$$

COZ006>008-011-281200-
...WEST CENTRAL VALLEYS...

CITY           SKY/WX    TMP DP  RH WIND       PRES   REMARKS
GRAND JUNCTION CLEAR     31  26  82 E7        30.25S WCI  24
MONTROSE       CLOUDY    33  28  81 SE7       30.27F WCI  27
EAGLE          CLOUDY    30  28  93 CALM      30.25S
RIFLE          CLEAR     29  24  82 S3        30.25F
DELTA          NOT AVBL
NUCLA          CLOUDY    36  32  87 E9        30.30F
$$

COZ017>023-064>068-281200-
...SOUTHWEST COLORADO...

CITY           SKY/WX    TMP DP  RH WIND       PRES   REMARKS
DURANGO        CLOUDY    30  28  92 NE5       30.28S WCI  25
CORTEZ         PTCLDY    29  27  92 E8        30.27F WCI  21
PAGOSA SPRINGS CLOUDY    32  29  90 CALM      30.30R
TELLURIDE      NOT AVBL
WOLF CREEK PAS NOT AVBL
$$

COZ009-010-012-014-032>034-037-058>063-281200-
...CENTRAL COLORADO...

CITY           SKY/WX    TMP DP  RH WIND       PRES   REMARKS
ASPEN          CLOUDY    29  22  75 S9        30.23F WCI  20
BUENA VISTA    CLOUDY    41  20  42 W12G30    30.17F
COPPER MTN     MOCLDY    25  19  80 W21G30    30.26S WCI  10
BERTHOUD PASS  CLOUDY    18  12  79 NW40G47   30.16F WCI  -4
COTTONWOOD PAS MOCLDY    36  19  51 NW28G43   30.17F
GUNNISON       CLOUDY    10   3  72 CALM      30.33S
KREMMLING      CLOUDY    18  14  86 CALM      30.22S
LEADVILLE      MOCLDY    29  17  61 NW14G21   30.23S WCI  18
MONARCH PASS   FLURRIES  21  19  93 W43G49    30.36F WCI   0
SALIDA         MOCLDY    45  20  36 SW18G33   30.24S
SUNLIGHT       PTCLDY    28  25  86 CALM        N/A
WILKERSON PASS PTCLDY    25  16  68 SW15G25   30.18F WCI  12
$$

COZ069>075-281200-
...SAN LUIS VALLEY/SANGRE DE CRISTO MOUNTAINS...

CITY           SKY/WX    TMP DP  RH WIND       PRES   REMARKS
ALAMOSA        CLOUDY    19  16  88 NW5       30.24S WCI  12
LA VETA PASS   NOT AVBL
SAGUACHE       MOCLDY    30  23  74 N9        30.26S WCI  22
$$

COZ035-036-038>040-281200-
...NORTHERN COLORADO FRONT RANGE...

CITY           SKY/WX    TMP DP  RH WIND       PRES   REMARKS
DENVER INTL AP CLOUDY    45  25  45 W9        29.99F
DMNS CITY PARK   N/A     40  23  49 S3        30.00S
AURORA         MOCLDY    42  22  45 SW5       30.01F
FRONT RANGE AP NOT AVBL
ERIE MUNI ARPT MOCLDY    53  19  26 SW8       29.98F
BOULDER MUN AP MOCLDY    52  21  30 SW7       29.97F
CENTENNIAL     MOCLDY    40  22  48 E7        30.02S
BROOMFIELD     MOCLDY    54  21  28 W35G47    29.98S
FORT COLLINS   CLOUDY    52  23  32 NW14      29.99S
LONGMONT       CLOUDY    53  22  30 NW13      29.98S
$$

COZ041-046-047-076>085-087-088-281200-
...PIKES PEAK/PALMER DIVIDE AND SOUTHERN FOOTHILLS...

CITY           SKY/WX    TMP DP  RH WIND       PRES   REMARKS
COLO. SPRINGS  MOCLDY    48  19  31 NW13      30.02R
A. F. ACADEMY  MOCLDY    47  17  30 W17G31    30.04R
ELLICOTT       MOCLDY   N/A N/A N/A N7        30.01R
FALCON         MOCLDY    46  17  32 W21G30    30.04S
FORT CARSON    MOCLDY    41  22  46 NE3       29.99S
LIMON          MOCLDY    35  24  64 W5        29.99R WCI  31
MONUMENT HILL  MOCLDY    37  21  52 W7        30.05S
TRINIDAD       CLOUDY    39  27  62 W16       30.01F
$$

COZ042>045-048>051-090-091-281200-
...NORTHEAST COLORADO...

CITY           SKY/WX    TMP DP  RH WIND       PRES   REMARKS
GREELEY ARPT   CLOUDY    32  23  69 SW5       29.97R WCI  27
AKRON          MOCLDY    42  27  55 NW14      29.95S
BURLINGTON     PTCLDY    39  29  67 NW14      29.91R
WRAY           PTCLDY    45  31  59 NW10      29.90F
STERLING       MOCLDY    34  32  93 CALM      29.94S
HOLYOKE        PTCLDY    46  30  53 NW13      29.90F
FORT MORGAN    MOCLDY    37  27  69 SW3       29.97R
$$

COZ086-089-092>099-281200-
...SOUTHEAST COLORADO...

CITY           SKY/WX    TMP DP  RH WIND       PRES   REMARKS
PUEBLO         MOCLDY    54  22  28 NW21G32   29.97R
LA JUNTA       CLOUDY    43  29  57 W15       29.96R
LAMAR          MOCLDY    41  30  65 W12       29.92R
SPRINGFIELD      N/A     46  31  55 W15       29.94S
$$



USA.gov is the U.S. government's official web portal to all federal, state and local government web resources and services.